This is the latest recevied weather packets stored in our database for station/object N4AR. If no packets are shown the sender has not sent any weather packets the latest 10 day(s).
| Time | Temp. | Humidity | Pressure | Rain* | Wind** | Luminosity | Snow |
|---|---|---|---|---|---|---|---|
| 1777844243 | 19.44° C | 27% | 1015.9 hPa | 0 mm | - | 397 W/m² | - |
| 1777843940 | 18.89° C | 27% | 1016 hPa | 0 mm | - | 418 W/m² | - |
| 1777843637 | 18.89° C | 27% | 1016 hPa | 0 mm | - | 439 W/m² | - |
| 1777843335 | 19.44° C | 27% | 1016.1 hPa | 0 mm | - | 457 W/m² | - |
| 1777843032 | 20° C | 26% | 1015.9 hPa | 0 mm | - | 477 W/m² | - |
| 1777842728 | 19.44° C | 27% | 1016.1 hPa | 0 mm | - | 495 W/m² | - |
| 1777842423 | 19.44° C | 27% | 1016.4 hPa | 0 mm | - | 513 W/m² | - |
| 1777842121 | 18.89° C | 29% | 1016.1 hPa | 0 mm | - | 529 W/m² | - |
| 1777841815 | 18.33° C | 26% | 1016 hPa | 0 mm | - | 549 W/m² | - |
| 1777841512 | 18.33° C | 29% | 1016 hPa | 0 mm | - | 567 W/m² | - |
| 1777841209 | 18.89° C | 26% | 1016.1 hPa | 0 mm | - | 583 W/m² | - |
| 1777840907 | 20° C | 27% | 1016.1 hPa | 0 mm | - | 602 W/m² | - |
| 1777840603 | 19.44° C | 26% | 1015.8 hPa | 0 mm | - | 619 W/m² | - |
| 1777840301 | 18.33° C | 26% | 1015.8 hPa | 0 mm | - | 635 W/m² | - |
| 1777839998 | 18.33° C | 28% | 1015.9 hPa | 0 mm | - | 650 W/m² | - |
| 1777839696 | 17.78° C | 27% | 1015.9 hPa | 0 mm | - | 666 W/m² | - |
| 1777839394 | 18.33° C | 29% | 1016.1 hPa | 0 mm | - | 678 W/m² | - |
| 1777839092 | 18.89° C | 26% | 1016.1 hPa | 0 mm | - | 691 W/m² | - |
| 1777838788 | 19.44° C | 26% | 1016.2 hPa | 0 mm | - | 707 W/m² | - |
| 1777838484 | 19.44° C | 25% | 1016.3 hPa | 0 mm | - | 719 W/m² | - |
| 1777838181 | 18.89° C | 26% | 1016.5 hPa | 0 mm | - | 734 W/m² | - |
| 1777837878 | 18.89° C | 27% | 1016.7 hPa | 0 mm | - | 745 W/m² | - |
| 1777837576 | 20° C | 25% | 1016.5 hPa | 0 mm | - | 762 W/m² | - |
| 1777837276 | 20° C | 27% | 1016.5 hPa | 0 mm | - | 771 W/m² | - |
| 1777836973 | 18.33° C | 28% | 1016.7 hPa | 0 mm | - | 783 W/m² | - |
* Rain latest hour (hover to see other rain measurements)
** Current wind speed in m/s (hover to see current wind gust speed)